Regional Weather Roundup
Issued by NWS

Home | Current Version | Previous Version | Graphics & Text | Print | Product List | Glossary On
Versions: 1 2 3 4 5 6 7 8 9 10 11 12 13 14 15 16 17 18 19 20 21 22 23 24 25 26 27 28 29 30 31 32 33 34 35 36 37 38 39 40 41 42 43 44 45 46 47 48 49 50
000
ASUS43 KLMK 120410
RWRKY
KENTUCKY REGIONAL WEATHER ROUNDUP
NATIONAL WEATHER SERVICE LOUISVILLE KY
1200 AM EDT SAT JUL 12 2014

NOTE "FAIR" INDICATES FEW OR NO CLOUDS BELOW 12,000 FEET
WITH NO SIGNIFICANT WEATHER AND/OR OBSTRUCTIONS TO VISIBILITY.

KYZ001>023-026-027-061>063-070>075-120500-
WESTERN AND SOUTH CENTRAL KENTUCKY

CITY           SKY/WX    TMP DP  RH WIND       PRES   REMARKS
PADUCAH        CLEAR     75  69  81 CALM      30.14S
HENDERSON      PTCLDY    70  64  83 CALM      30.14F
OWENSBORO      CLEAR     74  66  75 CALM      30.16S
HOPKINSVILLE   CLEAR     75  67  76 CALM      30.17R
BOWLING GREEN  CLEAR     72  64  76 CALM      30.17S
GLASGOW        CLEAR     68  62  79 CALM      30.18S
$$

KYZ024-025-028>034-038-045-046-053-120500-
NORTH CENTRAL KENTUCKY

CITY           SKY/WX    TMP DP  RH WIND       PRES   REMARKS
LOUISVILLE/SDF PTCLDY    75  60  59 CALM      30.17S
LOUISVILLE/LOU CLEAR     75  60  59 CALM      30.18R
FORT KNOX      CLEAR     66  63  90 CALM      30.17S
$$

KYZ035>037-039>044-047>052-055>060-089>105-120500-
NORTHEAST KENTUCKY

CITY           SKY/WX    TMP DP  RH WIND       PRES   REMARKS
LEXINGTON      CLEAR     74  61  63 NE7       30.20S
COVINGTON      PTCLDY    69  57  65 CALM      30.19R
FRANKFORT      CLEAR     70  64  81 CALM      30.18S
$$

KYZ054-064>069-076>088-106>120-120500-
SOUTHEAST KENTUCKY

CITY           SKY/WX    TMP DP  RH WIND       PRES   REMARKS
JACKSON        CLEAR     76  59  55 SE3       30.22S
LONDON         CLEAR     70  62  76 CALM      30.22S
SOMERSET       CLEAR     68  61  77 CALM      30.21S
MIDDLESBORO    CLEAR     67  63  88 CALM      30.23S
MONTICELLO     CLEAR     64  62  93 CALM      30.22R
$$




USA.gov is the U.S. government's official web portal to all federal, state and local government web resources and services.